Location: Betra
(48.4113°N, 8.6634°E)
Time: 06:03:33
(UTC+00:00)

Cosmos 1953 - Pass Details

Date: 12 August 2024
Orbit: 506 x 524 km, 82.5° (Epoch: 07 September)

Event Time Altitude Azimuth Distance (km) Brightness Sun altitude
Exits shadow 02:39:52 - 164° (SSE) 2,282 5.2 -14.1°
Reaches altitude 10° 02:41:16 10° 158° (SSE) 1,732 4.7 -13.9°
Maximum altitude 02:44:44 35° 92° (E) 856 3.7 -13.5°
Drops below altitude 10° 02:48:15 10° 26° (NNE) 1,759 6.0 -13.0°
Sets 02:50:31 0° 18° (NNE) 2,657 6.9 -12.7°
